[[[{"header":{"parameterUnit":"kt","parameterCategory":2,"dx":1,"dy":1,"la1":30.253999710083008,"la2":30.299108505249023,"lo1":-89.0895004272461,"lo2":-89.04439544677734,"nx":28,"ny":28,"refTime":"2022-10-05T21:00:00:Z","depth":0,"parameterNumber":1,"parameterNumberName":"U-component_of_WINDS"},"data":[0.2099,0.2144,0.2142,0.2193,0.22,0.2235,0.2246,0.2262,0.2274,0.2315,0.2338,0.2343,0.2354,0.2383,0.2409,0.241,0.242,0.2436,0.2434,0.2364,0.2354,0.2345,0.2333,0.2439,0.2439,0.2506,0.2507,0.2507,0.2042,0.205,0.2077,0.2102,0.2125,0.2108,0.2127,0.2147,0.2179,0.2195,0.2219,0.2256,0.2285,0.2293,0.2321,0.2342,0.2336,0.2349,0.2347,0.2349,0.2274,0.2261,0.2354,0.2354,0.2354,0.2354,0.2354,0.2354,0.1939,0.1967,0.1981,0.2011,0.2023,0.2041,0.2067,0.2071,0.2098,0.2128,0.2123,0.2159,0.2176,0.2211,0.2223,0.2251,0.2236,0.2252,0.2255,0.2258,0.226,0.2158,0.2257,0.2257,0.2257,0.2256,0.2256,0,0.1862,0.1858,0.1885,0.1911,0.1933,0.1954,0.1973,0.199,0.1984,0.2008,0.2041,0.206,0.2099,0.2131,0.2158,0.2168,0.2154,0.2154,0.2163,0.2164,0.2161,0.216,0.2036,0.2151,0.215,0.2149,0.2149,0.2148,0.1755,0.1789,0.1805,0.1823,0.1834,0.1866,0.1884,0.1877,0.1897,0.192,0.1946,0.1978,0.2004,0.2059,0.2066,0.2095,0.2088,0.2132,0.2093,0.2092,0.2086,0.2083,0.2085,0.2139,0.214,0.2141,0.2142,0,0.1694,0.1692,0.1745,0.1758,0.1763,0.1799,0.181,0.1839,0.1841,0.1882,0.1891,0.1894,0.1928,0.1928,0.1969,0.1967,0.2025,0.2019,0.2018,0.2016,0.2052,0.2048,0.2177,0.2192,0.2085,0.2086,0.2087,0,0.16,0.1647,0.1641,0.1673,0.1723,0.1715,0.1766,0.1773,0.1788,0.1819,0.1803,0.1833,0.1829,0.1859,0.1858,0.1906,0.1915,0.1916,0.1914,0.1916,0.1915,0.1926,0.192,0.1914,0.1913,0.1913,0.1912,0,0.1503,0.1557,0.1608,0.162,0.164,0.1664,0.1673,0.1691,0.171,0.1736,0.1748,0.1779,0.1796,0.182,0.1817,0.179,0.1877,0.184,0.1878,0.1878,0.1896,0.1895,0.2011,0.1911,0.1911,0.1911,0.1911,0,0.1427,0.1452,0.1528,0.1543,0.1558,0.1593,0.1621,0.1651,0.1671,0.1672,0.1693,0.1682,0.1726,0.1689,0.1749,0.1714,0.1732,0.1737,0.174,0.1743,0.17,0.1762,0.1875,0.1885,0.1746,0.1745,0.1743,0,0.1314,0.1392,0.1385,0.1458,0.1493,0.147,0.1509,0.1528,0.1533,0.1563,0.1569,0.1605,0.1578,0.1589,0.1619,0.1626,0.1672,0.1621,0.1664,0.1665,0.1655,0.1759,0.1775,0.185,0.1726,0.1728,0.1729,0,0.1227,0.1251,0.1265,0.1277,0.1302,0.1332,0.1378,0.1411,0.1432,0.1457,0.1493,0.1547,0.1526,0.1547,0.1543,0.1574,0.1641,0.1549,0.155,0.1563,0.1719,0.1732,0.1745,0.1631,0.1633,0.1635,0.1715,0,0.1107,0.1147,0.1185,0.1216,0.124,0.1288,0.1287,0.1312,0.1304,0.1308,0.1364,0.1383,0.142,0.1436,0.143,0.1503,0.149,0.147,0.1433,0.1502,0.1529,0.154,0.1393,0.1392,0.1391,0.139,0,0,0.0998,0.1055,0.1048,0.1092,0.1111,0.1088,0.1138,0.1155,0.1191,0.1205,0.1184,0.1262,0.1279,0.1347,0.1369,0.1386,0.1398,0.1375,0.147,0.1479,0.1487,0.1515,0.1527,0.1389,0.1389,0.1388,0.1388,0,0.0953,0.0969,0.1019,0.1036,0.1061,0.1063,0.1075,0.1096,0.1101,0.1158,0.1139,0.1174,0.1239,0.1257,0.1275,0.1367,0.1351,0.1379,0.1426,0.1461,0.1471,0.148,0.151,0.1521,0.1386,0.1386,0.1386,0,0.0864,0.0879,0.0904,0.0949,0.0966,0.1005,0.0964,0.1009,0.1037,0.1013,0.1069,0.108,0.1107,0.1174,0.1204,0.1186,0.1307,0.1271,0.1277,0.128,0.1314,0.1327,0.1337,0.1195,0.1194,0.1193,0,0,0.0826,0.0864,0.0879,0.094,0.0951,0.0956,0.0978,0.0972,0.0996,0.1006,0.1019,0.1044,0.108,0.1105,0.1141,0.1215,0.1219,0.1248,0.1257,0.1264,0.1271,0.1307,0.1319,0.1191,0.1191,0.1191,0,0,0.0808,0.0827,0.0815,0.0885,0.0908,0.0927,0.0965,0.095,0.0982,0.0977,0.0972,0.0978,0.1041,0.1054,0.1018,0.1127,0.1091,0.1099,0.1117,0.1128,0.1137,0.1132,0.0981,0,0,0,0,0,0.0763,0.0824,0.0813,0.0825,0.0884,0.0933,0.0941,0.0937,0.091,0.0939,0.0948,0.0931,0.1033,0.1001,0.1014,0.1053,0.1158,0.1163,0.1169,0.1209,0.1221,0.1231,0,0,0,0,0,0,0.0767,0.0782,0.0811,0.0834,0.0847,0.0931,0.0884,0.0884,0.0906,0.0902,0.0929,0.0932,0.093,0.0995,0.1006,0.1043,0.0978,0.116,0.1165,0.1169,0.1213,0.1223,0.1231,0,0,0,0,0,0.0771,0.0782,0.0878,0.0833,0.0844,0.0853,0.0881,0.0882,0.0899,0.0914,0.0915,0.0894,0.0931,0.0941,0.1002,0.1038,0.097,0.0974,0.1163,0.1167,0.1171,0.1218,0,0,0,0,0,0,0.0774,0.0783,0.088,0.0883,0.0809,0.0849,0.0855,0.0879,0.0909,0.0911,0.0878,0.0874,0.0933,0.094,0.0947,0.1036,0.0963,0.0968,0.097,0.1166,0.1169,0.1172,0,0,0,0,0,0,0.0777,0.0786,0.0882,0.0852,0.0852,0.0844,0.085,0.0902,0.091,0.0871,0.0869,0.0876,0.0923,0.094,0.0945,0.1027,0.0958,0.0962,0.0965,0.0967,0.1169,0.1171,0,0,0,0,0,0,0.0781,0.0789,0.0851,0.0851,0.0851,0.0889,0.089,0.0952,0.0883,0.087,0.0877,0.0874,0.0923,0.0929,0.0944,0.1024,0.1026,0.0958,0.0961,0.0963,0.0965,0,0,0,0,0,0,0,0.0784,0.0731,0.086,0.0851,0.085,0.0914,0.0915,0.0916,0.0882,0.088,0.0877,0.0875,0.0935,0.0939,0.0944,0.1021,0,0,0.0958,0.096,0,0,0,0,0,0,0,0,0.0728,0.073,0.086,0.0861,0.0861,0.0915,0.0915,0.0916,0.0882,0.088,0.0878,0.0876,0.0936,0.0939,0.0943,0,0,0,0,0,0,0,0,0,0,0,0,0,0,0,0.086,0.0861,0,0.0915,0.0915,0.0916,0.0882,0.088,0.0878,0.0877,0.0937,0.094,0.0943,0,0,0,0,0,0,0,0,0,0,0,0,0,0,0,0,0,0,0,0,0,0,0,0,0,0,0,0,0,0,0,0,0,0,0,0,0,0,0,0,0,0,0,0,0,0,0,0,0,0,0,0,0,0,0,0,0,0,0,0,0,0,0,0,0,0,0,0,0]}],[{"header":{"parameterUnit":"kt","parameterCategory":2,"dx":1,"dy":1,"la1":30.253999710083008,"la2":30.299108505249023,"lo1":-89.0895004272461,"lo2":-89.04439544677734,"nx":28,"ny":28,"refTime":"2022-10-05T21:00:00:Z","depth":0,"parameterNumber":2,"parameterNumberName":"V-component_of_WINDS"},"data":[2.6951,2.6831,2.6726,2.6538,2.6411,2.6261,2.6172,2.6046,2.5917,2.5722,2.5589,2.5465,2.5287,2.5097,2.4943,2.4888,2.4828,2.4866,2.4794,2.4731,2.4715,2.4699,2.4721,2.4856,2.4857,2.4871,2.4871,2.4872,2.692,2.6796,2.6666,2.6467,2.6353,2.6255,2.6086,2.5995,2.5862,2.5702,2.5565,2.5381,2.5219,2.5022,2.4845,2.4779,2.4717,2.4739,2.4737,2.4709,2.4641,2.4666,2.4792,2.4792,2.4792,2.4792,2.4792,2.4792,2.6835,2.6767,2.6584,2.644,2.6311,2.6177,2.609,2.594,2.5807,2.5614,2.5508,2.5351,2.5163,2.4892,2.4772,2.4643,2.4596,2.4581,2.4576,2.4573,2.4587,2.4575,2.4607,2.4606,2.4606,2.4605,2.4604,0,2.6736,2.6652,2.6518,2.6354,2.6242,2.6102,2.5954,2.5897,2.5671,2.557,2.5411,2.53,2.5078,2.4911,2.4718,2.4591,2.4465,2.4442,2.443,2.4476,2.4546,2.4502,2.4391,2.4439,2.4437,2.4435,2.4434,2.4434,2.6636,2.657,2.6325,2.6245,2.6137,2.6011,2.5911,2.5717,2.5619,2.5404,2.5349,2.5182,2.5036,2.4794,2.4606,2.4436,2.437,2.4401,2.4343,2.4395,2.4363,2.4366,2.4356,2.4414,2.4416,2.4418,2.442,0,2.6589,2.6411,2.6272,2.6031,2.5969,2.5907,2.5698,2.5618,2.5477,2.5346,2.5304,2.5078,2.4921,2.4727,2.4506,2.4408,2.4293,2.4238,2.4358,2.4334,2.4337,2.4338,2.439,2.4385,2.4249,2.425,2.4252,0,2.6429,2.6349,2.6086,2.6014,2.5917,2.5722,2.5629,2.5497,2.5332,2.5227,2.5058,2.4962,2.4728,2.4602,2.4457,2.4329,2.4288,2.4202,2.4163,2.4213,2.4224,2.4148,2.4139,2.4085,2.4084,2.4084,2.4084,0,2.6369,2.6133,2.6017,2.5933,2.5663,2.5612,2.5497,2.5309,2.5211,2.5052,2.4985,2.4814,2.4717,2.4585,2.44,2.4368,2.424,2.4156,2.4151,2.4156,2.4126,2.4129,2.4233,2.4084,2.4084,2.4084,2.4084,0,2.6208,2.6059,2.5918,2.5688,2.5633,2.5555,2.5374,2.5263,2.5076,2.498,2.4853,2.4712,2.4588,2.4519,2.4342,2.4352,2.4266,2.4173,2.4169,2.4138,2.4064,2.4141,2.4266,2.4268,2.4121,2.4121,2.4122,0,2.6186,2.5995,2.5825,2.5693,2.5577,2.5394,2.5302,2.5142,2.5007,2.4884,2.4732,2.4591,2.4499,2.4426,2.4366,2.4199,2.4187,2.4196,2.4009,2.4004,2.406,2.4175,2.4239,2.4263,2.4123,2.4123,2.4123,0,2.6143,2.5818,2.5806,2.57,2.5459,2.5359,2.5257,2.5075,2.5003,2.4841,2.4744,2.4544,2.4463,2.4345,2.421,2.4157,2.4189,2.4075,2.4067,2.4098,2.4109,2.417,2.4175,2.411,2.4109,2.4109,2.4124,0,2.5932,2.5812,2.5775,2.5547,2.5441,2.5348,2.5141,2.5055,2.4939,2.4795,2.4651,2.4461,2.427,2.4225,2.4106,2.405,2.4025,2.3941,2.385,2.3931,2.3929,2.393,2.387,2.3866,2.3863,2.386,0,0,2.5951,2.5774,2.5587,2.5479,2.5376,2.5183,2.5101,2.4977,2.4731,2.4661,2.4613,2.4301,2.4147,2.399,2.4,2.3924,2.3891,2.387,2.3896,2.3901,2.3905,2.3908,2.3912,2.3854,2.3853,2.3852,2.3851,0,2.5828,2.5689,2.5612,2.5477,2.527,2.5122,2.5106,2.4862,2.4765,2.4624,2.4458,2.4345,2.41,2.3957,2.3853,2.3887,2.3762,2.3845,2.3933,2.3871,2.388,2.3888,2.3894,2.39,2.3843,2.3844,2.3844,0,2.5745,2.557,2.5512,2.5272,2.5132,2.5016,2.4875,2.4759,2.4668,2.4451,2.4311,2.4176,2.3967,2.3849,2.3787,2.3738,2.3658,2.3646,2.366,2.3646,2.3574,2.3586,2.3597,2.3459,2.3459,2.3458,0,0,2.5667,2.5554,2.53,2.523,2.5154,2.4932,2.4849,2.4721,2.4542,2.4471,2.4293,2.4121,2.3974,2.3883,2.3734,2.3635,2.3571,2.3608,2.3625,2.3641,2.3636,2.3569,2.3581,2.3457,2.3457,2.3457,0,0,2.5626,2.5331,2.5244,2.5137,2.4977,2.4716,2.4678,2.4564,2.441,2.4396,2.4168,2.4111,2.3996,2.3868,2.3871,2.3696,2.3613,2.3608,2.3783,2.3803,2.382,2.385,2.3691,0,0,0,0,0,2.5393,2.5368,2.5293,2.5244,2.4935,2.476,2.4718,2.4533,2.4479,2.4454,2.4286,2.416,2.3822,2.382,2.3771,2.3767,2.3435,2.3439,2.3442,2.3644,2.3667,2.3687,0,0,0,0,0,0,2.5371,2.5313,2.5293,2.5036,2.4964,2.4759,2.4626,2.4574,2.4477,2.4455,2.4197,2.4152,2.3986,2.3832,2.3791,2.379,2.3704,2.3437,2.344,2.3443,2.3652,2.3671,2.3687,0,0,0,0,0,2.5354,2.5306,2.4861,2.5034,2.4972,2.472,2.4625,2.4581,2.4501,2.4241,2.4192,2.437,2.3991,2.3943,2.3806,2.3814,2.3731,2.3717,2.3439,2.3441,2.3444,2.3661,0,0,0,0,0,0,2.5341,2.5262,2.4844,2.4818,2.5029,2.4728,2.4675,2.4588,2.4289,2.4241,2.4403,2.439,2.3994,2.3956,2.3921,2.3833,2.3753,2.3738,2.3729,2.3441,2.3443,2.3444,0,0,0,0,0,0,2.5286,2.5242,2.483,2.4835,2.4807,2.4736,2.4689,2.4543,2.4288,2.4467,2.4447,2.4401,2.4045,2.3966,2.3938,2.3718,2.377,2.3756,2.3746,2.374,2.3442,2.3444,0,0,0,0,0,0,2.5264,2.5225,2.484,2.4819,2.4795,2.4488,2.4603,2.4295,2.43,2.4483,2.4294,2.4292,2.4058,2.4025,2.395,2.3744,2.3725,2.377,2.376,2.3753,2.3749,0,0,0,0,0,0,0,2.5246,2.555,2.4999,2.4806,2.4785,2.4577,2.457,2.4563,2.4299,2.4297,2.4295,2.4293,2.3851,2.3836,2.382,2.3766,0,0,2.3771,2.3764,0,0,0,0,0,0,0,0,2.5562,2.5553,2.4999,2.4993,2.4988,2.4576,2.457,2.4564,2.4299,2.4297,2.4295,2.4294,2.3847,2.3834,2.3822,0,0,0,0,0,0,0,0,0,0,0,0,0,0,0,2.4998,2.4994,0,2.4575,2.457,2.4565,2.4299,2.4297,2.4296,2.4294,2.3843,2.3833,2.3823,0,0,0,0,0,0,0,0,0,0,0,0,0,0,0,0,0,0,0,0,0,0,0,0,0,0,0,0,0,0,0,0,0,0,0,0,0,0,0,0,0,0,0,0,0,0,0,0,0,0,0,0,0,0,0,0,0,0,0,0,0,0,0,0,0,0,0,0,0]}]]]